Location: Ladrillo (historical)
(32.8195°N, 117.2231°W)
Time: 03:33:50
(UTC+00:00)

Cosmos 2369 - Pass Details

Date: 29 October 2020
Orbit: 840 x 854 km, 71.0° (Epoch: 26 November)

Event Time Altitude Azimuth Distance (km) Brightness Sun altitude
Exits shadow 12:08:21 11° 347° (NNW) 2,359 5.9 -24.9°
Maximum altitude 12:13:40 63° 68° (ENE) 934 4.1 -23.8°
Drops below altitude 10° 12:19:14 10° 149° (SSE) 2,447 6.5 -22.7°
Sets 12:21:41 0° 153° (SSE) 3,378 7.2 -22.1°
